Location: Newark
(42.9858°N, 0.6717°E)
Time: 18:55:00
(UTC+00:00)

Vanguard 2 Rocket - All Passes

Search period start: 18 November 2019 00:00
Search period end: 28 November 2019 00:00
Orbit: 554 x 3326 km, 32.9° (Epoch: 17 November)

Date Brightness Start Highest point End Pass type
(mag) Time Alt. Az. Time Alt. Az. Time Alt. Az.
18 Nov - 01:28:19 10° SSW 01:31:43 21° SSE 01:36:09 10° ESE visible
18 Nov - 03:39:00 10° WSW 03:44:02 35° S 03:52:00 10° ESE visible
18 Nov - 05:51:04 10° WSW 05:57:29 29° SSW 06:07:23 10° SE visible
18 Nov - 08:06:39 10° SW 08:11:56 14° SSW 08:18:25 10° S daylight
19 Nov - 00:30:33 10° S 00:32:45 14° SSE 00:35:12 10° ESE night (unlit)
19 Nov - 02:40:26 10° SW 02:44:41 31° S 02:51:00 10° ESE visible
19 Nov - 04:52:04 10° WSW 04:57:38 30° S 05:06:22 10° SE visible
19 Nov - 07:05:53 10° WSW 07:11:37 18° SSW 07:19:15 10° SSE daylight
20 Nov - 01:41:58 10° SW 01:45:33 25° SSE 01:50:18 10° ESE visible
20 Nov - 03:53:14 10° WSW 03:58:02 30° S 04:05:25 10° SE visible
20 Nov - 06:06:03 10° WSW 06:11:32 20° SSW 06:19:15 10° SSE visible
21 Nov - 00:43:39 10° SSW 00:46:31 19° SSE 00:49:51 10° ESE night (unlit)
21 Nov - 02:54:32 10° WSW 02:58:40 29° S 03:04:40 10° ESE visible
21 Nov - 05:06:43 10° WSW 05:11:42 22° SSW 05:18:53 10° SSE visible
21 Nov - 23:45:38 10° S 23:47:30 13° SSE 23:49:25 10° SE night (unlit)
22 Nov - 01:55:54 10° SW 01:59:28 26° S 02:04:12 10° ESE visible
22 Nov - 04:07:41 10° WSW 04:12:06 24° S 04:18:26 10° SE visible
22 Nov - 06:22:26 10° SW 06:25:38 12° SSW 06:29:25 10° S visible
23 Nov - 00:57:16 10° SW 01:00:24 22° S 01:04:03 10° ESE night (unlit)
23 Nov - 03:08:50 10° WSW 03:12:42 24° S 03:18:03 10° SE visible
23 Nov - 05:22:12 10° SW 05:25:47 15° SSW 05:30:20 10° SSE visible
23 Nov - 23:58:40 10° SSW 00:01:21 17° SSE 00:04:09 10° SE night (unlit)
24 Nov - 02:10:02 10° SW 02:13:28 24° S 02:17:53 10° SE visible
24 Nov - 04:22:40 10° SW 04:26:10 16° SSW 04:30:42 10° SSE visible
24 Nov - 23:00:07 10° SSW 23:02:17 14° SSE 23:04:21 10° SE night (unlit)
25 Nov - 01:11:13 10° SW 01:14:21 22° S 01:18:00 10° SE night (unlit)
25 Nov - 03:23:29 10° SW 03:26:44 18° S 03:30:56 10° SSE visible
25 Nov - 22:01:51 10° S 22:03:07 11° SSE 22:04:19 10° SSE night (unlit)
26 Nov - 00:12:17 10° SW 00:15:17 20° S 00:18:23 10° SE night (unlit)
26 Nov - 02:24:26 10° SW 02:27:29 19° S 02:31:12 10° SE visible
26 Nov - 23:13:13 10° SW 23:16:13 18° S 23:19:00 10° SE night (unlit)
27 Nov - 01:25:23 10° SW 01:28:19 20° S 01:31:39 10° SE night (unlit)
27 Nov - 03:39:18 10° SSW 03:40:48 11° SSW 03:42:27 10° S visible
27 Nov - 22:13:59 10° SSW 22:17:06 17° S 22:19:46 10° SE night (unlit)
